Content
SEND FEEDBACK

Daily
Averages
Monthly
Summary
Canada

VANCOUVER, BRITISH COLUMBIA


Home > North America > Canada > British Columbia
Elevation: 2 meters     Latitude: 49 11N     Longitude: 123 10W

WEATHER
 
SELECT A DAY
Number of Records: 249,649;   Date Range: 5/15/97 - 8/26/14
 
SHARE

PRINT THIS DATA

[ ← Previous Day ]
WEATHER ALMANAC - 6 JANUARY, 2013
[ Next Day → ]
[ °F ]   °C
Weather ElementAverageHighLow
Temperature5.7 °C7 °C (12:35 pm)5 °C (12:35 am)
Dewpoint4.2 °C5 °C (4:15 am)3 °C (12:35 am)
Humidity89.8 %93 % (2:35 am)81 % (12:35 pm)
Barometer1017.9 hPa1020 hPa (9:35 am)1013.2 hPa (11:35 pm)
Wind Speed10.5 km/h24.1 km/h (11:35 pm)
Wind Gust38.9 km/h (11:35 pm)
Weather ElementAverage
Visibility13.2 km
Wind DirectionSSE (156.9 °)

Weather ElementTotal
Precipitation3.81 mm
Heating Degree Days12.3 (Base 18.3)
Averaged from 65 records on 6 January, 2013
WEATHER CONDITIONS BREAKOUT
WIND DIRECTION BREAKOUT
WEATHER BY HOUR - 6 JANUARY, 2013
[ °F ]   °C
Local TimeTemperatureDewpointHumidityBarometerVisibilityWind DirectionWind SpeedGust SpeedPrecipitationEventsConditions
12:35 AM5 °C3 °C87 %1018.6 hPa16.1 kmSouth (190°)11.1 km/hClear
12:55 AM5 °C3 °C87 %1019 hPa16.1 kmSSW (200°)13 km/hClear
1:15 AM5 °C3 °C87 %1019 hPa16.1 kmSSW (200°)11.1 km/hClear
1:35 AM5 °C3 °C87 %1019.3 hPa16.1 kmSouth (180°)9.3 km/hClear
2:15 AM5 °C3 °C87 %1019.6 hPa16.1 kmNorthClear
2:35 AM5 °C4 °C93 %1019.6 hPa16.1 kmSSE (160°)5.6 km/hPartly Cloudy
2:55 AM5 °C4 °C93 %1019.6 hPa16.1 kmSSW (200°)11.1 km/hPartly Cloudy
3:15 AM5 °C4 °C93 %1019.3 hPa16.1 kmSSW (200°)11.1 km/hMostly Cloudy
3:55 AM5 °C4 °C93 %1019.6 hPa16.1 kmSouth (170°)5.6 km/hMostly Cloudy
4:15 AM6 °C5 °C93 %1019.3 hPa16.1 kmSouth (180°)5.6 km/hMostly Cloudy
4:35 AM6 °C4 °C87 %1019.6 hPa16.1 kmSouth (190°)11.1 km/hOvercast
4:55 AM6 °C4 °C87 %1019.6 hPa16.1 kmSouth (180°)11.1 km/hOvercast
5:15 AM5 °C4 °C93 %1019.3 hPa16.1 kmSouth (180°)14.8 km/hOvercast
5:35 AM5 °C4 °C93 %1019.3 hPa16.1 kmSouth (170°)11.1 km/hMostly Cloudy
6:15 AM5 °C4 °C93 %1019 hPa16.1 kmSSW (200°)20.4 km/hOvercast
6:35 AM5 °C4 °C93 %1019 hPa16.1 kmSouth (170°)7.4 km/hMostly Cloudy
6:55 AM5 °C4 °C93 %1019.3 hPa16.1 kmSouth (170°)7.4 km/hMostly Cloudy
7:15 AM5 °C4 °C93 %1019.3 hPa16.1 kmSouth (180°)9.3 km/hScattered Clouds
7:35 AM5 °C4 °C93 %1019.3 hPa16.1 kmSouth (180°)11.1 km/hClear
7:55 AM5 °C3 °C87 %1019.6 hPa16.1 kmSouth (190°)13 km/hClear
8:15 AM5 °C4 °C93 %1019.6 hPa16.1 kmSouth (190°)18.5 km/hClear
8:35 AM5 °C4 °C93 %1019.6 hPa16.1 kmSouth (170°)13 km/hClear
9:15 AM5 °C4 °C93 %1019.6 hPa16.1 kmSouth (190°)16.7 km/h25.9 km/hPartly Cloudy
9:35 AM5 °C4 °C93 %1020 hPa16.1 kmSouth (190°)16.7 km/hScattered Clouds
9:55 AM5 °C4 °C93 %1020 hPa16.1 kmSouth (180°)13 km/hMostly Cloudy
10:15 AM6 °C4 °C87 %1020 hPa16.1 kmSouth (190°)13 km/hPartly Cloudy
10:35 AM6 °C4 °C87 %1020 hPa16.1 kmSouth (180°)9.3 km/hScattered Clouds
10:55 AM6 °C4 °C87 %1020 hPa16.1 kmSouth (170°)7.4 km/hMostly Cloudy
11:15 AM6 °C4 °C87 %1019.6 hPa16.1 kmSouth (170°)9.3 km/hMostly Cloudy
11:35 AM6 °C4 °C87 %1019.3 hPa16.1 kmSouth (170°)7.4 km/hOvercast
11:55 AM6 °C4 °C87 %1019 hPa16.1 kmSouth (180°)13 km/hMostly Cloudy
12:15 PM6 °C4 °C87 %1019 hPa16.1 kmSouth (180°)9.3 km/hMostly Cloudy
12:35 PM7 °C4 °C81 %1018.6 hPa16.1 kmSouth (180°)11.1 km/hMostly Cloudy
12:55 PM7 °C4 °C81 %1018.6 hPa16.1 kmSouth (180°)9.3 km/hMostly Cloudy
1:15 PM7 °C4 °C81 %1018.3 hPa16.1 kmSouth (170°)7.4 km/hMostly Cloudy
1:35 PM7 °C4 °C81 %1018.3 hPa16.1 kmSSE (150°)7.4 km/hOvercast
1:55 PM7 °C4 °C81 %1018.3 hPa16.1 kmNorthOvercast
2:15 PM7 °C4 °C81 %1018.3 hPa16.1 kmNorthOvercast
2:55 PM7 °C4 °C81 %1017.6 hPa14.5 kmSSE (160°)5.6 km/hMostly Cloudy
3:15 PM7 °C4 °C81 %1017.6 hPa16.1 kmSSE (160°)7.4 km/hMostly Cloudy
3:35 PM7 °C4 °C81 %1017.6 hPa8 kmSouth (170°)5.6 km/hRainLight Rain
3:55 PM7 °C5 °C87 %1017.6 hPa9.7 kmCalmRainLight Rain
4:15 PM6 °C5 °C93 %1017.6 hPa6.4 kmCalmRainLight Rain
4:35 PM6 °C5 °C93 %1017.3 hPa8 kmCalmRainLight Rain
4:55 PM6 °C5 °C93 %1016.9 hPa9.7 kmSSE (160°)5.6 km/hRainLight Rain
5:15 PM6 °C5 °C93 %1016.6 hPa8 kmSouth (170°)7.4 km/hRainLight Rain
5:35 PM6 °C5 °C93 %1016.6 hPa9.7 kmSouth (170°)5.6 km/hRainLight Rain
5:55 PM6 °C5 °C93 %1016.6 hPa11.3 kmNorthRainLight Rain
6:15 PM6 °C5 °C93 %1016.3 hPa12.9 kmSSE (150°)5.6 km/hRainLight Rain
6:35 PM6 °C5 °C93 %1016.3 hPa11.3 kmSSE (160°)5.6 km/hRainLight Rain
6:55 PM6 °C5 °C93 %1016.3 hPa9.7 kmSouth (170°)11.1 km/hRainLight Rain
7:15 PM6 °C5 °C93 %1015.9 hPa8 kmSouth (170°)7.4 km/hRainRain
7:35 PM6 °C5 °C93 %1015.9 hPa9.7 kmSouth (170°)9.3 km/hRainLight Rain
7:55 PM6 °C5 °C93 %1015.6 hPa11.3 kmSSE (160°)9.3 km/hRainLight Rain
8:15 PM6 °C5 °C93 %1015.2 hPa8 kmSouth (170°)9.3 km/hRainLight Rain
8:35 PM6 °C5 °C93 %1015.2 hPa8 kmSSE (160°)13 km/hRainLight Rain
8:55 PM6 °C5 °C93 %1014.9 hPa8 kmSouth (170°)11.1 km/h0.25 mmRainLight Rain
9:15 PM5 °C4 °C93 %1014.6 hPa6.4 kmSouth (170°)14.8 km/h31.5 km/h0.25 mmRainRain
9:35 PM5 °C4 °C93 %1014.2 hPa6.4 kmSouth (180°)16.7 km/h29.6 km/h0.76 mmRainRain
9:55 PM5 °C4 °C93 %1014.2 hPa4.8 kmSouth (170°)13 km/h25.9 km/h1.02 mmRainRain
10:15 PM5 °C4 °C93 %1013.9 hPa4.8 kmSouth (170°)16.7 km/h31.5 km/h0.25 mmRainRain
10:35 PM5 °C4 °C93 %1013.5 hPa6.4 kmSouth (170°)14.8 km/h29.6 km/h0.51 mmRainLight Rain
10:55 PM5 °C4 °C93 %1013.5 hPa8 kmSouth (180°)16.7 km/h33.3 km/h0.51 mmRainLight Rain
11:15 PM5 °C4 °C93 %1013.5 hPa8 kmSouth (180°)20.4 km/h35.2 km/hRainLight Rain
11:35 PM5 °C3 °C87 %1013.2 hPa8 kmSouth (180°)24.1 km/h38.9 km/h0.25 mmOvercast
Hourly data recorded from CZBB, located 0 kilometers away from Vancouver, British Columbia







STORIES FROM OUR PARTNERS